#timestamp,LO_Frequency,Hit,StdDev 
1509346815.7,286046995.5,N
1509346835.5,286046998.4,N
1509346855.3,286047002.2,N
1509346875.2,286047003.1,N
1509346895.9,286047005.3,N
1509346915.7,286047006.2,N
1509346935.6,286047008.1,N
1509346955.4,286047011.2,N
1509346975.2,286047011.1,N
1509346995.1,286047012.3,N
1509346996.0,286047012.3,N
1509347015.8,286047013.3,N
1509347035.6,286047010.9,N
1509347055.5,286047015.5,N
1509347075.3,286047013.7,N
1509347095.1,286047017.0,N
1509347115.9,286047016.0,N
1509347135.7,286047016.5,N
1509347155.5,286047015.1,N
1509347175.4,286047009.7,N
1509347195.2,286047012.1,N
1509347215.0,286047010.1,N
1509347215.9,286047010.1,N
1509347235.8,286047011.6,N
1509347255.6,286047010.5,N
1509347275.4,286047012.1,N
1509347295.3,286047007.7,N
1509347315.1,286047004.5,N
1509347335.8,286047004.2,N
1509347355.7,286047004.4,N
1509347375.5,286047003.2,N
1509347395.3,286047005.0,N
1509347415.2,286047004.2,N
1509347435.0,286046999.3,N
1509347435.9,286046999.3,N
1509347455.7,286046996.3,N
1509347475.6,286046992.2,N
1509347495.4,286046991.9,N
1509347515.2,286046992.1,N
1509347535.1,286046997.4,N
1509347536.0,286046997.4,N
1509347555.8,286046993.8,N
1509347575.7,286046994.3,N
1509347595.5,286046992.1,N
1509347615.3,286046992.0,N
1509347635.2,286046993.6,N
1509347655.9,286046994.8,N
1509347675.7,286046988.7,N
1509347695.6,286046986.2,N
1509347715.4,286046987.8,N
1509347735.2,286046985.3,N
1509347755.1,286046986.0,N
1509347756.0,286046986.0,N
1509347775.8,286046985.3,N
1509347795.6,286046989.7,N
1509347815.5,286046989.7,N
1509347835.3,286046990.0,N
1509347855.1,286046985.6,N
1509347875.9,286046988.2,N
1509347895.7,286046988.3,N
1509347915.5,286046987.9,N
1509347935.4,286046989.6,N
1509347955.2,286046990.8,N
1509347975.0,286046990.6,N
1509347975.9,286046990.6,N
1509347995.8,286046991.4,N
1509348015.6,286046990.3,N
1509348035.4,286046988.2,Y
1509348055.3,286047001.6,P
1509348075.1,286047002.3,N
1509348095.9,286047001.5,N
1509348115.7,286047000.8,N
1509348135.5,286046995.1,N
1509348155.3,286046992.8,N
1509348175.2,286046992.0,N
1509348195.0,286046992.7,N
1509348195.9,286046992.7,N
1509348215.8,286046994.3,N
1509348235.6,286046993.9,N
1509348255.4,286046993.4,N
1509348275.3,286046993.5,N
1509348295.1,286046993.5,N
1509348296.0,286046993.5,N
1509348315.8,286046992.0,N
1509348335.7,286046992.6,N
1509348355.5,286046996.8,N
1509348375.3,286047000.8,N
1509348395.2,286046998.7,N
1509348415.9,286046998.7,N
1509348435.7,286047000.8,N
1509348455.6,286047000.8,N
1509348475.4,286047002.6,N
1509348495.2,286047006.9,N
1509348515.1,286047002.0,N
1509348516.0,286047002.0,N
1509348535.8,286047002.7,N
1509348555.6,286047000.1,N
1509348575.5,286047003.5,N
1509348595.3,286047003.2,N
1509348615.1,286047006.6,N
1509348635.9,286047008.7,N
1509348655.7,286047008.1,N
1509348675.5,286047007.3,N
1509348695.4,286047003.3,N
1509348715.2,286047002.2,N
1509348735.0,286047001.7,N
1509348735.9,286047001.7,N
1509348755.8,286047002.1,N
1509348775.6,286047002.0,N
1509348795.4,286047001.4,N
1509348815.3,286047004.4,N
1509348835.1,286047004.6,N
1509348855.9,286047004.6,N
1509348875.7,286047004.7,N
1509348895.5,286047006.7,N
1509348915.4,286047004.9,N
1509348935.2,286047002.5,N
1509348955.0,286047003.4,N
1509348955.9,286047003.4,N
1509348975.8,286047006.0,N
1509348995.6,286047007.2,Y
1509349015.4,286047001.9,P
1509349035.3,286046998.5,N
1509349055.1,286047000.6,N
1509349075.8,286047002.2,N
1509349095.7,286047005.9,Y
1509349115.5,286047001.9,P
1509349135.4,286047000.3,N
1509349155.2,286047001.9,N
1509349175.0,286047000.3,N
1509349175.9,286047000.3,N
1509349195.8,286046999.7,N
1509349215.6,286047004.3,Y
1509349235.4,286047001.9,P
1509349255.3,286047005.8,P
1509349275.1,286046999.9,N
1509349295.8,286046996.2,N
1509349315.7,286046995.5,N
1509349335.5,286046995.7,N
1509349355.3,286046995.4,N
1509349375.2,286046994.7,N
1509349395.0,286046990.1,N
1509349395.9,286046990.1,N
1509349415.8,286046989.4,N
1509349435.6,286046987.6,N
1509349455.4,286046986.0,N
1509349475.3,286046986.1,N
1509349495.1,286046991.6,N
1509349496.0,286046991.6,N
1509349515.8,286046991.3,N
1509349535.7,286046989.0,N
1509349555.5,286046987.4,N
1509349575.3,286046987.8,N
1509349595.2,286046989.3,N
1509349615.9,286046991.1,N
1509349635.7,286046989.1,N
1509349655.6,286046987.0,N
1509349675.4,286046989.2,N
1509349695.2,286046984.7,N
1509349715.1,286046981.6,Y
1509349716.0,286046981.6,P
1509349735.8,286046992.9,N
1509349755.7,286046992.5,N
1509349775.5,286046994.3,N
1509349795.3,286046998.0,N
1509349815.2,286047002.0,N
1509349835.9,286047000.4,N
1509349855.7,286047001.0,N
1509349875.6,286046999.0,N
1509349895.4,286047002.5,N
1509349915.2,286047002.8,N
1509349935.1,286047002.7,N
1509349936.0,286047002.7,N
1509349955.8,286047002.0,N
1509349975.6,286047000.9,N
1509349995.5,286047000.1,N
1509350015.3,286046998.8,N
1509350035.1,286047000.3,N
1509350055.9,286047000.2,N
1509350075.7,286046999.8,N
1509350095.5,286047001.9,N
1509350115.4,286047001.6,N
1509350135.2,286047000.5,N
1509350155.0,286047000.1,N
1509350155.9,286047000.1,N
1509350175.8,286047002.9,N
1509350195.6,286047009.0,N
1509350215.4,286047010.5,N
1509350235.3,286047006.5,N
1509350255.1,286047006.3,N
1509350256.0,286047006.3,N
1509350275.8,286047000.1,N
1509350295.7,286047002.8,N
1509350315.5,286047000.8,N
1509350335.3,286047002.6,N
1509350355.2,286046996.8,N
1509350375.9,286046995.8,N
1509350395.7,286046994.4,N
